Location: Misciano
(43.5000°N, 11.9500°E)
Time: 16:09:23
(UTC+00:00)

Cosmos 676 Rocket - Pass Details

Date: 13 August 2020
Orbit: 754 x 784 km, 74.0° (Epoch: 18 September)

Event Time Altitude Azimuth Distance (km) Brightness Sun altitude
Rises 19:49:44 0° 205° (SSW) 3,249 7.1 -15.3°
Reaches altitude 10° 19:52:07 10° 207° (SSW) 2,328 6.4 -15.7°
Maximum altitude 19:57:24 71° 291° (WNW) 828 4.3 -16.4°
Drops below altitude 10° 20:02:45 10° 16° (NNE) 2,350 6.8 -17.2°
Sets 20:05:10 0° 19° (NNE) 3,282 7.6 -17.5°
